www.pogodaiklimat.ru

Погода и климат >> Архив погоды >> Россия >> Краснодарский край >> Армавир


АРХИВ ПОГОДЫ в Армавире

Время (UTC), дата Ветер
(напр.,м/с)
 
Видим.   Явления Облачность Т
(С)
Тd
(С)
f
(%)
Тe
(С)
Тes
(С)
Комфортность P
(гПа)
Po
(гПа)
Тmin
(С)
Tmax
(С)
R
(мм)
R24
(мм)
S
(см)
12 9.07 З 5-10
{12}
10 км {ливн. осадки} 10/4 600 м
[Cu hum Ac trans Cs]
+28.0 +11.0 35 +29 +31 жарко 1009.0 991.1
15 9.07 З 4
{12}
10 км 9/8 600 м
[Sc Ac trans]
+26.1 +8.0 32 +26 +26 жарко 1009.8 991.8 +28.7 0.0
18 9.07 З 3 10 км 10/5 600 м
[Sc Ac trans Ci fib]
+21.4 +7.7 41 +22 +22 комфорт 1011.5 993.1
21 9.07 ЮВ 1 10 км 10/3 600 м
[Sc Ci]
+16.5 +7.5 55 +17 +17 прохладно 1012.2 993.5
00 10.07 ЮВ 1 10 км 4/0
[Ci fib]
+13.4 +8.7 73 +14 +14 прохладно 1011.5 992.6
03 10.07 ЮВ 1 10 км 3/0
[Ac trans Ci fib]
+15.2 +9.4 68 +16 +17 прохладно 1010.4 991.6 +12.3
06 10.07 В 2 10 км 9/0
[Ac trans Ci]
+22.5 +8.6 41 +24 +31 комфорт 1009.2 991.0
09 10.07 СВ 2
{11}
10 км 6/1 600 м
[Cu hum Ac cast]
+27.5 +7.4 28 +27 +37 жарко 1007.7 989.8
12 10.07 З 3 10 км 8/8 600 м
[Sc]
+28.6 +8.0 27 +28 +30 жарко 1006.6 988.7
15 10.07 С 2 10 км 10/10 600 м
[Sc]
+25.0 +11.2 42 +26 +26 жарко 1006.7 988.7 +29.2
18 10.07 С 1 10 км 10/0
[Ac und]
+21.3 +12.0 55 +23 +23 комфорт 1007.2 989.0
21 10.07 С 1 10 км 10/0
[Ac und]
+19.6 +12.1 62 +22 +22 комфорт 1007.2 988.8
00 11.07 СЗ 1 10 км 9/9 600 м
[Sc]
+18.0 +11.9 68 +19 +19 тепло 1006.3 987.8
03 11.07 штиль 0 10 км 9/1 600 м
[Sc Ac As]
+19.0 +12.0 64 +20 +20 по сезону 1005.7 987.3 +17.1
06 11.07 В 1 10 км в посл. час ливневой дождь 10/10 600 м
[Cb cap]
+20.9 +11.0 53 +24 +24 комфорт 1004.9 986.6
09 11.07 СЗ 2 10 км 10/10 1000 м
[Sc]
+24.4 +11.3 44 +26 +26 жарко 1004.4 986.4
12 11.07 С 2 10 км 10/10 600 м
[Sc]
+23.8 +12.0 48 +26 +26 жарко 1004.7 986.6
15 11.07 С 3 10 км 10/10 600 м
[Sc]
+21.5 +13.9 62 +24 +24 комфорт 1005.3 987.1 +25.8 0.0
18 11.07 СВ 1 10 км слаб. ливневой дождь 10/10 600 м
[Cb cap]
+16.7 +15.2 91 +18 +18 прохладно 1006.1 987.6
21 11.07 С 1 10 км {ливн. осадки} 10/10 600 м
[Cb cap]
+16.8 +14.7 87 +18 +18 по сезону 1005.7 987.2
00 12.07 СЗ 2 10 км слаб. ливневой дождь 10/10 600 м
[Cb cap]
+16.1 +14.7 91 +16 +16 по сезону 1005.3 986.7
03 12.07 СЗ 2 10 км слаб. ливневой дождь 10/10 300 м
[Cb cap]
+15.3 +14.5 95 +15 +15 холодно 1006.1 987.5 +15.1 16
06 12.07 С 2 10 км слаб. ливневой дождь 10/10 600 м
[Cb cap]
+15.6 +14.9 96 +15 +15 очень
холодно
1007.2 988.6
09 12.07 СЗ 2 10 км {ливн. осадки} 10/10 600 м
[Cb cap]
+16.7 +13.9 84 +17 +17 очень
холодно
1008.9 990.3
12 12.07 ЮЗ 2 10 км {ливн. осадки} 9/8 600 м
[Cu Sc Ci fib]
+21.4 +13.7 61 +24 +26 комфорт 1009.0 990.7
15 12.07 В 1 10 км 9/3 600 м
[Cu med, cong Ci]
+22.6 +12.3 52 +25 +27 комфорт 1008.9 990.7 +23.0 6
18 12.07 ЮВ 1 10 км 6/0
[Ac trans Ci fib]
+17.0 +14.1 83 +18 +18 прохладно 1009.7 991.1
21 12.07 штиль 0 10 км 10/0
[Cc]
+14.2 +13.2 94 +14 +14 холодно 1010.0 991.2
00 13.07 штиль 0 10 км 5/0
[Ci fib]
+13.4 +12.0 91 +13 +13 прохладно 1009.1 990.3
03 13.07 ЮВ 2 10 км 10/10 600 м
[Cb cap]
+14.6 +13.0 90 +14 +14 холодно 1009.1 990.4 +13.4
06 13.07 ЮВ 1 10 км слаб. ливневой дождь 10/8 200 м
[Cb cap Ac As]
+17.7 +14.7 83 +19 +20 прохладно 1009.6 991.1
09 13.07 ЮВ 1 10 км {ливн. осадки} 8/6 600 м
[Cu med, cong Ac trans]
+23.5 +15.1 59 +26 +32 жарко 1008.9 990.8
12 13.07 ЮЗ 2 10 км в посл. час ливневой дождь {гроза} 8/5 600 м
[Cb cap Ac trans Ci fib]
+22.9 +12.5 52 +26 +30 жарко 1009.1 990.9
15 13.07 З 4
{10}
10 км {ливн. осадки} 8/3 600 м
[Cu Sc Ac lent Ci fib]
+22.3 +11.0 49 +24 +25 комфорт 1010.1 991.8 +24.3 0.0
18 13.07 Ю 1 10 км {ливн. осадки} 1/0
[Ac trans]
+16.0 +12.6 80 +17 +17 холодно 1011.5 992.8
21 13.07 Ю 1 10 км 6/0
[Ac trans Ci fib]
+13.8 +12.3 91 +14 +14 холодно 1012.1 993.3
00 14.07 штиль 0 10 км 3/0
[Ac trans]
+12.5 +11.3 92 +12 +12 холодно 1011.6 992.7
03 14.07 ЮВ 1 10 км 9/0
[Ac trans Ci]
+13.4 +12.6 95 +13 +14 очень
холодно
1011.6 992.8 +11.7
06 14.07 ЮЗ 1 10 км 3/0
[Ac trans Ci fib]
+21.5 +13.5 60 +24 +35 комфорт 1010.9 992.6
09 14.07 Ю 1 10 км 8/8 600 м
[Cu hum]
+25.5 +10.1 38 +26 +31 жарко 1009.8 991.7
12 14.07 З 2 10 км 9/8 600 м
[Cu med, cong Ci fib]
+27.3 +6.6 27 +27 +29 жарко 1008.2 990.2
15 14.07 С 2 10 км 10/4 300 м
[Cu med, cong Ac trans Ci fib]
+27.4 +7.8 29 +27 +28 жарко 1007.5 989.6 +28.4
18 14.07 СВ 2 10 км 10/8 600 м
[Sc Ci]
+22.1 +9.9 46 +24 +24 комфорт 1008.0 989.8
21 14.07 В 1 10 км 10/0
[Ci fib]
+18.9 +12.4 66 +21 +21 комфорт 1007.4 988.9
00 15.07 штиль 0 10 км 4/0
[Ci fib]
+14.9 +12.9 88 +15 +15 прохладно 1006.8 988.1
03 15.07 З 1 10 км 1/0
[Ci fib]
+16.7 +13.2 80 +18 +19 прохладно 1006.0 987.5 +13.7
06 15.07 В 4 10 км 10/0
[Cc]
+24.9 +12.5 46 +27 +32 жарко 1005.1 987.1
09 15.07 В 4
{11}
10 км 10/1 600 м
[Cu hum Ac As]
+26.1 +10.2 37 +27 +30 жарко 1003.9 986.0
12 15.07 В 3 10 км {ливн. осадки} 10/8 600 м
[Cu Sc Ac As]
+26.9 +9.6 34 +27 +28 жарко 1003.3 985.4
15 15.07 ЮЗ 4 10 км слаб. ливневой дождь 10/10 600 м
[Cb cap]
+19.7 +17.1 85 +22 +22 комфорт 1005.2 986.9 +27.2 4
18 15.07 штиль 0 10 км {ливн. осадки} 8/4 600 м
[Sc Ac trans]
+17.4 +16.3 93 +17 +17 холодно 1005.7 987.2
21 15.07 СЗ 1 1000 м дымка 3/0
[Ci fib]
+15.9 +15.0 94 +17 +17 прохладно 1005.8 987.3
00 16.07 ЮВ 1 4000 м в посл. час туман 9/0
[Ac trans]
+15.7 +15.0 96 +16 +16 по сезону 1005.9 987.3
03 16.07 ЮВ 2 4000 м в посл. час ливневой дождь 10/10 600 м
[Cb cap]
+16.8 +16.1 96 +17 +17 прохладно 1006.4 987.8 +14.7 3
06 16.07 ЮВ 2 10 км {ливн. осадки} 10/10 600 м
[Sc]
+19.8 +17.3 86 +23 +23 комфорт 1006.7 988.4
09 16.07 В 1 10 км 9/8 600 м
[Cu hum Ci fib]
+25.1 +15.1 54 +28 +32 жарко 1005.8 987.8

 

Местоположение метеостанции Армавир (Краснодарский край, Россия): широта 44.98 долгота 41.12 высота над уровнем моря 159 м.

В архиве по умолчанию представлена погода в Армавире за последнюю неделю. Архивные данные за месяц целиком и за предыдущие месяцы, начиная с января 2011 года, Вы можете получить, выбрав интересующий диапазон дат из раскрывающегося списка и нажав кнопку "Ввод!".


*Определитесь, кто Вы:
робот инопланетянин человек

Внимание! Время в таблицах - всемирное. Для получения местного времени необходимо прибавить поправку, которая равна 3 ч.

Смотрите также архив погоды в соседних городах и на ближайших метеорологических станциях:

Погода в Лабинске (Краснодарский край, Россия) (45 км)
Погода в Даховской (Адыгея, Россия) (45 км)
Погода в Новоалександровске (Ставропольский край, Россия) (58 км)
Погода в Дондуковской (Адыгея, Россия) (62 км)
Погода в Изобильном (Ставропольский край, Россия) (63 км)
Погода в Кропоткине (Краснодарский край, Россия) (66 км)
Погода в Отрадной (Краснодарский край, Россия) (71 км)
Погода в Ставрополе (Ставропольский край, Россия) (77 км)
Погода в Невинномысске (Ставропольский край, Россия) (78 км)
Погода в Майкопе (Адыгея, Россия) (91 км)

Пояснения к столбцам:

Ветер - указаны скорость ветра в м/с - средняя за 10 мин, порывы в срок и между сроками (в фигурных скобках) и направление, откуда дует ветер: С - северный, СВ - северо-восточный, В - восточный, ЮВ - юго-восточный, Ю - южный, ЮЗ - юго-западный, З - западный, СЗ - северо-западный.
Видимость - горизонтальная дальность видимости в метрах или километрах. При видимости от 1 до 10 км при отсутствии осадков обычно наблюдается дымка, при ухудшении видимости до 1 км и менее - туман. В сухую погоду видимость может ухудшаться дымом, пылью или мглою.
Явления - указаны атмосферные явления, наблюдавшиеся в срок или в последний час перед сроком; фигурными скобками обозначены явления, наблюдавшиеся между сроками (за 1-3 часа до срока); квадратными скобками обозначены град или гололедные отложения с указанием их диаметра в мм.
Облачность - указаны через наклонную черту общая и нижняя облачность в баллах и высота нижней границы облаков в метрах; квадратными скобками обозначены формы облаков: Ci - перистые, Cs - перисто-слоистые, Cc - перисто-кучевые, Ac - высококучевые, As - высокослоистые, Sc - слоисто-кучевые, Ns - слоисто-дождевые, Cu - кучевые, Cb - кучево-дождевые. Подробнее классификацию облаков см. в Атласе облаков (PDF).
T - Температура воздуха - температура, измеренная на высоте 2 м над землей.
Td - Температура точки росы - температура, при понижении до которой содержащийся в воздухе водяной пар достигнет насыщения.
f - Относительная влажность воздуха - влажноcть воздуха, измеренная на высоте 2 м над землей.
Te - Эффективная температура - температура, которую ощущает одетый по сезону человек в тени. Характеристика душности погоды. При расчете учитывается влияние влажности воздуха и скорости ветра на теплоощущения человека.
Tes - Эффективная температура на солнце - температура, которую ощущает человек, с поправкой на солнечный нагрев. Характеристика знойности погоды. Зависит от высоты солнца над горизонтом, облачности и скорости ветра. Ночью, в пасмурную погоду, а также при ветре 12 м/с и более поправка равна нулю.
P - Атмосферное давление - приведенное к уровню моря атмосферное давление.
Po - Атмосферное давление - измеренное на уровне метеостанции атмосферное давление.
Tmin - Минимальная температура - минимум температуры воздуха на высоте 2 м над землей.
Tmax - Максимальная температура - максимум температуры воздуха на высоте 2 м над землей.
R - Количество осадков - Количество выпавших осадков за период времени, мм. При наведении курсора мыши на число - период времени, за который выпало указанное количество осадков.
R24 - Количество осадков - Количество выпавших осадков за 24 часа, мм.
S - Снежный покров - Высота снежного покрова, см. При наведении курсора мыши на число - состояние снежного покрова и степень покрытия местности в баллах.